This is the latest recevied weather packets stored in our database for station/object K5KHP. If no packets are shown the sender has not sent any weather packets the latest 10 day(s).
| Time | Temp. | Humidity | Pressure | Rain* | Wind** | Luminosity | Snow |
|---|---|---|---|---|---|---|---|
| 1778017729 | 18.89° C | 62% | 1013.8 hPa | 0 mm | - | 233 W/m² | - |
| 1778017426 | 18.89° C | 61% | 1013.7 hPa | 0 mm | - | 281 W/m² | - |
| 1778017123 | 18.89° C | 64% | 1013.9 hPa | 0 mm | - | 337 W/m² | - |
| 1778016821 | 18.89° C | 64% | 1013.9 hPa | 0 mm | - | 364 W/m² | - |
| 1778016517 | 18.33° C | 65% | 1013.9 hPa | 0 mm | - | 358 W/m² | - |
| 1778016214 | 18.33° C | 65% | 1013.9 hPa | 0 mm | - | 339 W/m² | - |
| 1778015910 | 18.89° C | 65% | 1013.9 hPa | 0 mm | - | 271 W/m² | - |
| 1778015608 | 18.89° C | 63% | 1014.1 hPa | 0 mm | - | 251 W/m² | - |
| 1778015304 | 18.33° C | 65% | 1014.1 hPa | 0 mm | - | 258 W/m² | - |
| 1778015001 | 18.89° C | 63% | 1013.9 hPa | 0 mm | - | 241 W/m² | - |
| 1778014698 | 18.89° C | 61% | 1014 hPa | 0 mm | - | 331 W/m² | - |
| 1778014396 | 18.89° C | 61% | 1013.9 hPa | 0 mm | - | 337 W/m² | - |
| 1778014093 | 19.44° C | 60% | 1014.1 hPa | 0 mm | - | 406 W/m² | - |
| 1778013791 | 20° C | 59% | 1013.9 hPa | 0 mm | - | 282 W/m² | - |
| 1778013488 | 20° C | 58% | 1013.9 hPa | 0 mm | - | 629 W/m² | - |
| 1778013184 | 20° C | 58% | 1013.9 hPa | 0 mm | - | 383 W/m² | - |
| 1778012880 | 20° C | 56% | 1013.8 hPa | 0 mm | - | 415 W/m² | - |
| 1778012577 | 20° C | 55% | 1013.6 hPa | 0 mm | - | 467 W/m² | - |
| 1778012273 | 20° C | 55% | 1013.8 hPa | 0 mm | - | 814 W/m² | - |
| 1778011971 | 20° C | 54% | 1014 hPa | 0 mm | - | 773 W/m² | - |
| 1778011669 | 19.44° C | 57% | 1013.9 hPa | 0 mm | - | 642 W/m² | - |
| 1778011366 | 19.44° C | 57% | 1014 hPa | 0 mm | - | 722 W/m² | - |
| 1778011061 | 20° C | 58% | 1014.1 hPa | 0 mm | - | 491 W/m² | - |
| 1778010759 | 19.44° C | 61% | 1013.9 hPa | 0 mm | - | 705 W/m² | - |
| 1778010456 | 18.89° C | 60% | 1013.9 hPa | 0 mm | - | 425 W/m² | - |
* Rain latest hour (hover to see other rain measurements)
** Current wind speed in m/s (hover to see current wind gust speed)